When you browse on this site, cookies collect data to enhance your experience and personalize the content and advertising you see.
Visit our Privacy Policy to learn more. By continuing to use the site, you agree to this use of cookies and data.
  • Em Portugal
  • Lista de países
  • Para 7 dias
  • Temperatura da água
  • Mapas de satélite
  • Mapa do tempo
  • Widgets de tempo
  • user-avatar
    Iniciar Sessão

    Previsão horária em Tibissa

    Hoje, 27 Março, Quarta-feira

    Tempo Temperatura Precipitação Vento Pressão Humidade
    00:00 +6°C° 2.3 mm 4 m/s 684 mmHg 89%
    01:00 +6°C° 2.3 mm 4 m/s 684 mmHg 89%
    02:00 +5°C° 2.2 mm 5 m/s 684 mmHg 88%
    03:00 +5°C° 2.2 mm 5 m/s 684 mmHg 88%
    04:00 +3°C° 2.2 mm 5 m/s 684 mmHg 87%
    05:00 +3°C° 2.6 mm 5 m/s 684 mmHg 86%
    06:00 +3°C° 2.6 mm 6 m/s 684 mmHg 84%
    07:00 +3°C° 2.6 mm 6 m/s 684 mmHg 83%
    08:00 +3°C° 1.6 mm 6 m/s 684 mmHg 84%
    09:00 +3°C° 1.6 mm 6 m/s 684 mmHg 84%
    10:00 +3°C° 1.6 mm 6 m/s 684 mmHg 84%
    11:00 +4°C° 1.1 mm 6 m/s 685 mmHg 83%
    12:00 +4°C° 1.1 mm 6 m/s 685 mmHg 82%
    13:00 +5°C° 1.1 mm 6 m/s 685 mmHg 81%
    14:00 +5°C° 0.3 mm 6 m/s 685 mmHg 80%
    15:00 +7°C° 0.3 mm 6 m/s 685 mmHg 79%
    16:00 +7°C° 0.3 mm 6 m/s 684 mmHg 78%
    17:00 +7°C° 0 mm 6 m/s 684 mmHg 80%
    18:00 +5°C° 0 mm 6 m/s 684 mmHg 82%
    19:00 +5°C° 0 mm 6 m/s 685 mmHg 84%
    20:00 +5°C° 0 mm 6 m/s 685 mmHg 86%
    21:00 +4°C° 0 mm 6 m/s 685 mmHg 88%
    22:00 +4°C° 0 mm 6 m/s 686 mmHg 90%
    23:00 +5°C° 0 mm 5 m/s 686 mmHg 91%

    Amanhã, 28 Março, Quinta-feira

    Tempo Temperatura Precipitação Vento Pressão Humidade
    00:00 +3°C° 0 mm 5 m/s 686 mmHg 93%
    01:00 +4°C° 0 mm 4 m/s 686 mmHg 95%
    02:00 +4°C° 0 mm 4 m/s 686 mmHg 95%
    03:00 +4°C° 0 mm 4 m/s 686 mmHg 94%
    04:00 +4°C° 0 mm 4 m/s 686 mmHg 94%
    05:00 +4°C° 0 mm 4 m/s 686 mmHg 94%
    06:00 +3°C° 0 mm 5 m/s 686 mmHg 93%
    07:00 +3°C° 0 mm 5 m/s 686 mmHg 93%
    08:00 +5°C° 0 mm 5 m/s 687 mmHg 87%
    09:00 +5°C° 0 mm 6 m/s 687 mmHg 81%
    10:00 +6°C° 0 mm 7 m/s 688 mmHg 75%
    11:00 +8°C° 0 mm 7 m/s 688 mmHg 70%
    12:00 +9°C° 0 mm 6 m/s 688 mmHg 66%
    13:00 +10°C° 0 mm 6 m/s 688 mmHg 61%
    14:00 +10°C° 0 mm 6 m/s 688 mmHg 59%
    15:00 +10°C° 0 mm 5 m/s 687 mmHg 56%
    16:00 +12°C° 0 mm 5 m/s 687 mmHg 54%
    17:00 +10°C° 0.2 mm 5 m/s 687 mmHg 62%
    18:00 +9°C° 0.2 mm 5 m/s 687 mmHg 70%
    19:00 +8°C° 0.2 mm 5 m/s 687 mmHg 77%
    20:00 +7°C° 0.1 mm 4 m/s 688 mmHg 80%
    21:00 +7°C° 0.1 mm 4 m/s 688 mmHg 83%
    22:00 +7°C° 0.1 mm 3 m/s 689 mmHg 86%
    23:00 +7°C° 0 mm 3 m/s 689 mmHg 88%

    Depois de amanhã, 29 Março, Sexta-feira

    Tempo Temperatura Precipitação Vento Pressão Humidade
    00:00 +5°C° 0 mm 3 m/s 689 mmHg 90%
    01:00 +6°C° 0 mm 2 m/s 689 mmHg 92%
    02:00 +5°C° 0 mm 2 m/s 689 mmHg 93%
    03:00 +5°C° 0 mm 2 m/s 688 mmHg 94%
    04:00 +5°C° 0 mm 2 m/s 688 mmHg 95%
    05:00 +5°C° 0 mm 2 m/s 688 mmHg 95%
    06:00 +5°C° 0 mm 2 m/s 689 mmHg 94%
    07:00 +5°C° 0 mm 2 m/s 689 mmHg 93%
    08:00 +6°C° 0 mm 2 m/s 689 mmHg 81%
    09:00 +7°C° 0 mm 2 m/s 690 mmHg 69%
    10:00 +9°C° 0 mm 2 m/s 690 mmHg 56%
    11:00 +10°C° 0 mm 2 m/s 690 mmHg 52%
    12:00 +12°C° 0 mm 2 m/s 690 mmHg 49%
    13:00 +13°C° 0 mm 1 m/s 690 mmHg 45%
    14:00 +13°C° 0 mm 1 m/s 690 mmHg 43%
    15:00 +14°C° 0 mm 1 m/s 690 mmHg 41%
    16:00 +14°C° 0 mm 1 m/s 689 mmHg 39%
    17:00 +14°C° 0 mm 2 m/s 689 mmHg 43%
    18:00 +13°C° 0 mm 2 m/s 689 mmHg 47%
    19:00 +12°C° 0 mm 3 m/s 689 mmHg 51%
    20:00 +11°C° 0 mm 3 m/s 690 mmHg 57%
    21:00 +10°C° 0 mm 3 m/s 690 mmHg 63%
    22:00 +10°C° 0 mm 3 m/s 691 mmHg 69%
    23:00 +9°C° 0 mm 3 m/s 690 mmHg 72%

    30 Março, Sábado

    Tempo Temperatura Precipitação Vento Pressão Humidade
    00:00 +9°C° 0 mm 3 m/s 690 mmHg 75%
    01:00 +8°C° 0 mm 3 m/s 690 mmHg 79%
    02:00 +8°C° 0 mm 3 m/s 690 mmHg 80%
    03:00 +7°C° 0 mm 3 m/s 690 mmHg 82%
    04:00 +7°C° 0 mm 2 m/s 689 mmHg 84%
    05:00 +7°C° 0 mm 2 m/s 689 mmHg 85%
    06:00 +7°C° 0 mm 2 m/s 689 mmHg 85%
    07:00 +7°C° 0 mm 2 m/s 689 mmHg 86%
    08:00 +9°C° 0 mm 2 m/s 690 mmHg 77%
    09:00 +10°C° 0 mm 2 m/s 690 mmHg 68%
    10:00 +13°C° 0 mm 2 m/s 690 mmHg 59%
    11:00 +14°C° 0 mm 2 m/s 690 mmHg 53%
    12:00 +15°C° 0 mm 2 m/s 690 mmHg 48%
    13:00 +16°C° 0 mm 2 m/s 690 mmHg 42%
    14:00 +16°C° 0 mm 2 m/s 689 mmHg 40%
    15:00 +17°C° 0 mm 2 m/s 689 mmHg 38%
    16:00 +17°C° 0 mm 2 m/s 689 mmHg 36%
    17:00 +16°C° 0 mm 2 m/s 689 mmHg 40%
    18:00 +16°C° 0 mm 2 m/s 688 mmHg 43%
    19:00 +15°C° 0 mm 2 m/s 688 mmHg 47%
    20:00 +14°C° 0 mm 2 m/s 688 mmHg 53%
    21:00 +13°C° 0 mm 2 m/s 688 mmHg 59%
    22:00 +12°C° 0 mm 2 m/s 689 mmHg 65%
    23:00 +12°C° 0 mm 2 m/s 688 mmHg 68%

    31 Março, Domingo

    Tempo Temperatura Precipitação Vento Pressão Humidade
    00:00 +10°C° 0 mm 2 m/s 688 mmHg 71%
    01:00 +10°C° 0 mm 2 m/s 687 mmHg 74%
    02:00 +9°C° 0 mm 2 m/s 687 mmHg 75%
    03:00 +9°C° 0 mm 2 m/s 687 mmHg 76%
    04:00 +9°C° 0 mm 2 m/s 686 mmHg 77%
    05:00 +9°C° 0 mm 2 m/s 686 mmHg 76%
    06:00 +9°C° 0 mm 2 m/s 686 mmHg 74%
    07:00 +9°C° 0 mm 2 m/s 686 mmHg 73%
    08:00 +12°C° 0 mm 2 m/s 686 mmHg 65%
    09:00 +13°C° 0 mm 3 m/s 687 mmHg 56%
    10:00 +16°C° 0 mm 3 m/s 687 mmHg 48%
    11:00 +15°C° 0 mm 4 m/s 687 mmHg 45%
    12:00 +17°C° 0 mm 4 m/s 686 mmHg 43%
    13:00 +18°C° 0 mm 4 m/s 686 mmHg 41%
    14:00 +17°C° 0 mm 5 m/s 685 mmHg 41%
    15:00 +17°C° 0 mm 5 m/s 684 mmHg 41%
    16:00 +16°C° 0 mm 5 m/s 684 mmHg 40%
    17:00 +15°C° 0.1 mm 5 m/s 684 mmHg 45%
    18:00 +14°C° 0.1 mm 5 m/s 683 mmHg 50%
    19:00 +13°C° 0.1 mm 6 m/s 683 mmHg 54%
    20:00 +12°C° 0.5 mm 5 m/s 683 mmHg 58%
    21:00 +11°C° 0.5 mm 4 m/s 683 mmHg 61%
    22:00 +11°C° 0.5 mm 3 m/s 683 mmHg 64%
    23:00 +11°C° 0.3 mm 3 m/s 683 mmHg 66%

    1 Abril, Segunda-feira

    Tempo Temperatura Precipitação Vento Pressão Humidade
    00:00 +11°C° 0.3 mm 4 m/s 683 mmHg 67%
    01:00 +11°C° 0.3 mm 4 m/s 682 mmHg 68%
    02:00 +9°C° 0.2 mm 5 m/s 682 mmHg 69%
    03:00 +9°C° 0.2 mm 5 m/s 681 mmHg 71%
    04:00 +9°C° 0.2 mm 5 m/s 681 mmHg 72%
    05:00 +8°C° 1.2 mm 5 m/s 681 mmHg 76%
    06:00 +7°C° 1.2 mm 5 m/s 681 mmHg 80%
    07:00 +7°C° 1.2 mm 5 m/s 680 mmHg 84%
    08:00 +6°C° 4 mm 4 m/s 681 mmHg 87%
    09:00 +7°C° 4 mm 3 m/s 681 mmHg 90%
    10:00 +7°C° 4 mm 1 m/s 681 mmHg 93%
    11:00 +8°C° 0.7 mm 2 m/s 681 mmHg 85%
    12:00 +9°C° 0.7 mm 3 m/s 681 mmHg 77%
    13:00 +11°C° 0.7 mm 3 m/s 681 mmHg 69%
    14:00 +11°C° 0 mm 3 m/s 681 mmHg 70%
    15:00 +12°C° 0 mm 2 m/s 681 mmHg 70%
    16:00 +12°C° 0 mm 2 m/s 681 mmHg 70%
    17:00 +12°C° 0 mm 2 m/s 681 mmHg 72%
    18:00 +12°C° 0 mm 2 m/s 681 mmHg 74%
    19:00 +10°C° 0 mm 2 m/s 681 mmHg 76%
    20:00 +11°C° 0 mm 1 m/s 682 mmHg 79%
    21:00 +10°C° 0 mm 1 m/s 682 mmHg 82%
    22:00 +9°C° 0 mm 1 m/s 682 mmHg 86%
    23:00 +9°C° 0 mm 1 m/s 682 mmHg 86%
    Mostrar mais